DECAYED

STARLINK-5982, 56817 (Decayed)

Orbit data source: Space-Track

STARLINK-5982, 56817 was a payload satellite owned by SpaceX/Seattle (US) in LEO that was launched on Wed, 31 May 2023 UTC via an FALCON 9 launch vehicle from the Air Force Western Test Range (AFWTR). Payload-class satellites include a variety of spacecraft equipped with specific instruments for various scientific and technological missions. These include communications satellites like Starlink; space stations such as the ISS; scientific satellites like the Hubble; Earth observation satellites from companies like Planet Labs, Umbra, and HawkEye 360; GPS; miniature CubeSats for education and research; and military/defense satellites.

Not visible in the next 10 days
Identifier
56817, 2023-078BC
Orbit
Decayed
Country
Flag of USUS
Related business
Manufacturer
SpaceX/Seattle
Mission
Decayed Commercial Communications
Bus & Motor
STARLINK, Unknown motor
Mass
305 kg wet, ~290 kg dry
Launch date (UTC)
2023-05-31 (3 years ago)
Launch vehicle
FALCON 9
Launch site
Air Force Western Test Range (AFWTR)
Object type
Payload
Rocket body
Debris
Shape & HBR
Box + 1 Pan, 10.1 m
Radar Cross Section
11.087 m², Large (>1 m²)

Expand to show TLE details & history
Last TLE update: 4 months ago

TLE from 4 months ago
0 STARLINK-5982
1 56817U 23078BC  26043.37074657  .10755637  44729-5  18144-3 0  9997
2 56817  69.9773  31.6955 0009398 246.2936 113.7313 16.47429499149299
Epoch: 2026-02-12T08:53Z
TLE epoch observation values (Epoch: 2026-02-12T08:53:52.503Z)
Latitude
-0.00004°
Longitude
115.80325°
Altitude
151.167 km
Speed
7.814 km/s
True Right ascension
02h 06m 46s
True Declination
0° 00' 00"
Sunlit
Object was in daylight at epoch
Visualization orbit readout
Latitude
Unknown
Longitude
Unknown
Altitude
Unknown
Speed
Unknown
Apparent Right ascension
Unknown
Apparent Declination
Unknown
Sunlit
N/A
Visualization observer readout
Local Sidereal Time
21:32:24
Azimuth
Unknown
Elevation
Unknown
Doppler factor
Unknown
Orbital elements
Apogee altitude
150.059 km
Perigee altitude
137.8 km
Semi-major axis
6,522.067 km
Eccentricity
0.00094
Inclination
69.9773°
RAAN
31.6955°
Arg. of periapsis
246.2936°
True anomaly
113.82984°
Mean anomaly
113.7313°
Eccentric anomaly
113.78057°
Mean motion
4.12065 °/min
Orbital period
87.36 mins
BSTAR
0.00018144
Loading maneuver chart data...
Computing Atmospheric mass density...
Loading historical data...
Loading historical data...
Loading historical data...
Loading historical data...
Loading historical data...
Loading historical data...
Loading historical data...

Documentation

Showing up to 5 results
|